Wind_Speed
8 7 7 7 7 7 6 6 5 5 4 4 4 3 2 3 2 3 3 3 2 2 1 2 1 1 1 2 2 3 3 4 5 5 5 6 6 7 7 7 7 8 8 9 9 9 9 9 9
10 9 8 8 8 8 7 7 5 5 4 4 4 3 2 3 3 3 3 3 2 2 2 2 2 2 2 2 2 3 4 5 5 6 6 7 7 8 8 9 9 9 9 9 9 9 10 9 9
11 11 10 9 9 9 9 8 6 5 5 5 4 3 2 3 3 3 3 3 3 3 3 3 3 3 2 2 3 4 5 5 6 6 6 7 8 8 9 9 9 9 9 9 9 9 9 10 10
12 13 12 11 11 10 10 8 8 6 5 6 5 4 3 3 3 3 3 3 3 3 3 3 3 3 2 2 3 4 5 6 6 6 6 7 8 8 9 8 9 9 9 9 9 9 9 10 10
14 14 13 13 12 11 10 9 8 7 6 5 5 5 4 4 3 2 2 2 1 1 2 2 2 2 2 3 4 5 5 5 5 6 6 7 8 8 8 9 9 9 9 9 9 9 10 10 10
15 15 15 14 13 12 10 9 7 7 6 5 6 6 5 4 4 3 2 2 1 1 1 2 1 2 2 3 4 5 5 5 6 6 7 7 8 8 9 9 9 9 9 9 9 9 10 10 10
16 16 16 15 13 12 11 10 9 8 7 6 6 6 5 5 4 3 2 2 2 1 1 2 2 2 3 3 4 4 5 5 6 6 7 7 8 8 8 9 9 9 9 10 10 10 9 10 10
17 17 17 17 15 13 11 10 9 8 7 6 6 5 5 5 4 3 2 2 2 2 1 1 2 2 2 3 4 4 5 6 6 7 7 7 8 8 8 8 8 8 9 9 9 9 9 9 9
18 18 18 18 17 15 12 10 9 8 7 7 6 5 5 5 4 4 3 3 2 2 1 2 2 2 3 3 4 5 5 6 6 7 7 7 7 8 7 7 8 8 8 8 9 9 9 8 8
20 20 19 18 18 17 14 12 11 10 9 7 6 5 5 5 5 4 3 3 2 2 1 2 3 3 2 3 4 4 5 5 6 6 7 7 7 7 8 8 8 8 8 8 8 8 8 8 8
20 20 20 18 18 16 14 12 12 12 11 8 7 6 6 5 4 4 3 3 2 2 2 1 1 2 2 3 3 3 4 5 6 6 7 7 7 7 8 8 8 8 8 7 8 8 8 8 7
20 21 21 19 17 16 14 13 12 13 11 10 8 8 7 6 5 5 4 3 3 2 1 1 0 0 1 2 2 4 5 6 7 7 7 7 7 7 7 7 8 8 7 7 7 7 7 7 7
21 21 22 20 18 16 15 14 12 11 11 10 10 9 7 7 6 6 6 4 3 2 2 1 1 0 1 2 3 4 5 6 7 7 8 8 7 7 7 8 8 8 7 7 7 6 6 6 5
21 22 21 21 19 17 16 15 14 12 11 11 11 9 9 8 8 7 6 5 4 3 2 2 1 1 1 2 4 5 6 6 7 8 8 8 8 8 8 8 8 7 7 6 5 5 5 5 5
20 21 20 20 19 18 17 16 15 13 13 12 12 11 10 9 8 7 6 5 4 3 2 1 1 0 1 2 4 5 6 6 8 8 9 9 9 9 9 9 9 8 7 6 5 5 4 4 3
20 21 20 20 19 18 18 17 16 15 14 13 12 12 12 11 9 8 7 6 5 4 2 2 1 1 2 3 4 5 6 7 8 9 10 10 10 10 10 9 9 8 7 6 5 4 4 3 2
20 20 20 20 20 20 19 17 16 15 14 14 13 12 13 12 11 9 8 7 6 4 3 2 2 2 2 3 4 5 6 8 9 10 10 10 11 11 11 10 10 9 9 8 6 5 4 2 1
17 18 20 20 20 20 19 18 17 16 15 15 14 13 12 13 11 9 8 7 6 5 4 3 3 2 2 3 5 6 7 8 9 10 10 11 11 12 12 12 11 11 11 10 9 7 7 5 4
17 18 19 20 21 21 20 19 19 18 17 15 14 13 13 13 12 10 9 8 7 6 5 5 3 3 3 4 5 6 7 8 9 10 11 11 12 12 13 13 13 12 12 12 11 9 9 8 7
18 18 19 20 21 21 21 20 20 19 19 17 15 14 12 13 12 11 10 9 8 7 6 5 4 3 4 4 5 6 7 8 9 10 11 12 12 13 13 13 14 14 13 13 12 11 10 9 8
17 18 18 19 20 21 21 21 21 20 19 18 17 15 14 14 12 12 11 10 9 8 7 6 5 5 4 4 5 6 7 8 9 10 11 12 12 12 13 13 14 14 14 14 13 12 11 11 10
16 17 17 17 19 20 20 21 21 21 20 18 17 16 15 14 13 12 12 11 10 9 8 7 6 5 5 5 5 6 6 7 8 9 10 11 12 12 13 13 13 14 14 14 13 13 12 11 11
14 15 16 15 16 18 18 20 20 20 19 19 18 17 16 15 13 12 12 12 11 10 9 8 7 6 6 6 6 5 5 6 7 8 9 11 11 12 12 12 13 14 14 14 14 13 13 12 11
13 14 15 15 14 15 16 17 18 18 17 18 18 18 17 16 14 14 13 13 12 11 10 10 8 7 7 7 6 5 5 5 6 7 8 10 11 11 12 12 13 13 13 13 13 13 13 12 11
12 14 15 15 15 14 15 16 15 17 18 17 18 18 17 17 16 15 14 13 13 12 11 10 9 8 8 7 6 5 4 4 5 6 7 8 9 10 10 11 11 12 12 13 13 13 13 12 11
11 13 14 15 15 15 16 15 14 16 17 18 19 19 18 17 16 16 15 14 14 13 13 11 10 9 9 8 7 5 4 3 3 4 5 6 8 8 9 9 10 11 12 12 13 13 12 12 11
10 12 14 14 14 14 15 15 15 17 17 18 20 20 18 17 16 16 15 15 14 14 14 12 11 10 10 9 8 6 5 3 3 3 4 5 7 7 8 8 8 9 10 11 11 11 11 11 11
9 11 13 13 13 13 13 13 15 15 15 16 18 19 18 18 17 16 16 15 15 15 14 13 12 11 10 10 8 7 5 4 3 2 2 3 5 5 6 6 7 7 8 9 9 10 10 10 10
9 10 11 12 13 13 13 13 14 15 15 15 16 18 18 18 18 17 17 16 15 15 15 14 13 12 11 11 9 8 6 5 3 2 1 1 2 4 4 4 5 6 6 7 8 8 9 9 9
10 11 11 11 11 11 13 13 14 15 16 16 16 17 19 19 18 18 18 17 16 16 16 15 15 13 12 12 10 9 8 6 4 3 2 1 0 1 2 3 4 4 5 6 7 7 8 8 7
Wind_Direction
244 242 240 235 231 237 244 247 243 239 230 233 237 253 221 212 213 223 231 232 234 233 248 253 246 262 272 289 294 300 308 312 310 304 295 293 289 288 286 285 285 285 286 285 282 277 269 265 261
244 242 239 237 237 240 241 247 252 240 232 226 227 243 235 208 215 230 235 236 243 247 259 254 244 247 264 279 294 305 309 308 308 304 297 293 291 289 286 283 281 283 284 282 278 277 268 262 259
243 241 238 238 241 243 246 246 251 251 236 220 219 226 224 204 212 228 239 249 255 259 258 258 246 248 264 279 296 307 311 308 307 304 299 293 291 290 289 288 285 285 282 278 275 273 268 260 260
242 241 238 239 242 244 244 243 245 253 250 230 223 214 209 208 214 226 232 242 254 261 247 242 237 249 260 279 298 310 313 311 307 303 301 297 292 290 292 291 288 286 282 277 274 272 271 263 257
241 241 239 239 242 245 243 241 242 251 256 237 222 218 211 207 212 218 214 201 237 262 229 220 232 259 267 282 300 309 312 312 308 301 299 298 293 293 294 292 288 284 282 278 276 275 273 269 260
240 239 239 239 242 241 239 235 235 247 249 244 229 223 213 201 198 200 198 183 171 188 235 227 233 273 289 296 303 305 306 307 306 301 297 298 298 295 295 293 290 285 282 279 278 278 276 271 264
239 238 236 237 239 237 239 236 238 244 247 240 230 217 213 199 191 195 187 176 180 187 222 244 248 267 289 298 303 305 306 306 307 309 306 304 303 300 296 295 293 288 286 282 280 279 277 273 266
239 238 237 237 238 238 234 234 235 240 240 231 219 217 213 204 193 198 199 192 170 163 177 232 249 263 284 298 306 308 312 312 312 317 317 312 309 305 303 301 299 294 290 285 282 281 280 276 268
237 236 237 238 237 236 229 227 228 229 231 220 219 215 208 206 198 196 196 185 170 167 208 265 271 284 293 307 317 319 323 321 321 324 323 318 313 312 311 309 307 302 298 292 286 284 283 280 271
235 235 236 238 238 238 232 226 226 225 225 221 221 212 198 196 194 191 186 185 175 180 224 257 275 287 308 324 326 328 336 337 337 336 332 326 323 321 318 316 313 310 304 297 290 286 284 280 276
235 234 234 235 235 232 230 227 222 225 223 219 214 211 203 196 196 195 186 180 183 193 215 229 276 299 320 336 335 346 351 349 347 344 339 335 332 329 325 324 322 319 310 302 296 288 282 276 274
235 235 234 233 231 232 231 225 221 222 222 215 206 203 203 197 205 203 202 192 193 195 175 135 117 296 331 343 355 10 4 359 357 353 348 345 343 341 339 339 336 328 320 312 304 293 285 279 275
235 234 234 233 234 231 229 226 226 222 215 210 207 208 213 205 207 210 206 204 193 177 168 137 144 97 26 12 18 20 9 5 5 1 356 354 355 355 354 352 347 339 330 321 312 303 295 287 278
233 232 231 230 228 225 225 223 223 222 217 211 210 209 210 203 206 207 202 202 191 178 162 130 110 54 30 23 22 18 11 9 12 13 12 12 9 5 3 360 357 353 344 335 327 318 308 295 286
231 231 229 227 225 225 225 223 222 220 215 210 209 207 205 204 203 206 205 200 186 175 163 145 142 22 40 35 31 25 21 22 25 26 24 24 22 19 16 12 9 2 355 352 347 338 328 312 301
234 230 228 225 223 223 223 222 220 219 217 213 212 210 210 206 205 204 202 200 192 187 174 159 145 105 68 47 40 36 38 38 35 33 32 33 31 28 25 22 20 15 11 7 2 357 345 330 320
230 227 226 225 222 219 219 221 222 218 217 215 213 214 212 208 204 205 202 201 199 193 183 168 151 117 82 62 55 55 53 47 42 40 39 37 36 35 34 34 30 27 24 22 20 21 23 22 34
225 226 222 221 219 218 218 219 219 218 216 215 215 217 212 206 204 203 202 199 196 198 190 177 162 125 90 78 71 69 61 54 49 46 43 41 41 41 43 41 38 37 37 37 38 41 46 52 64
226 223 219 219 217 217 217 217 217 216 213 211 213 211 207 206 205 202 201 198 196 197 191 185 173 143 115 100 88 78 64 56 52 50 48 47 45 46 47 47 46 46 46 46 48 51 52 57 66
222 220 220 218 217 217 214 212 214 211 209 207 208 209 208 203 203 202 201 200 197 193 190 181 170 156 133 113 98 81 69 62 59 55 52 50 49 49 49 51 51 52 51 51 53 55 56 60 67
224 222 218 219 219 217 217 216 215 212 210 208 208 206 205 204 203 204 203 200 196 196 191 181 173 163 142 121 106 91 78 70 64 58 55 52 52 53 52 54 54 54 54 54 56 59 61 64 69
223 219 216 219 218 216 216 214 213 213 213 209 206 205 206 206 207 209 204 199 198 198 192 185 174 165 149 138 124 104 86 75 67 59 55 53 54 55 55 57 57 55 56 56 58 59 62 65 69
222 222 221 220 216 213 212 213 212 212 211 209 206 204 204 206 207 207 203 202 200 198 194 188 177 173 162 150 135 117 94 80 71 62 57 54 55 55 56 58 59 57 57 57 58 59 60 63 68
219 220 222 221 218 216 214 215 210 213 209 209 209 205 205 207 207 206 202 201 199 200 195 187 182 180 172 160 145 131 109 92 76 65 56 54 53 54 57 58 59 59 58 58 58 58 58 61 65
217 219 219 219 220 217 214 216 211 212 209 207 205 202 205 207 204 202 202 202 201 201 197 191 187 186 180 169 158 146 128 107 86 68 58 54 51 53 57 58 58 59 59 58 59 59 59 59 62
212 214 216 218 218 216 217 218 212 211 207 204 201 200 201 202 203 204 204 204 203 203 199 197 195 193 188 180 172 162 148 128 101 73 58 53 52 57 58 56 58 59 60 60 60 60 58 59 62
206 206 210 215 215 213 214 213 209 209 208 204 202 200 198 201 202 203 203 202 202 202 201 200 197 195 192 188 182 176 165 148 120 84 65 56 53 59 61 58 59 59 59 59 58 57 58 59 61
206 201 203 206 208 211 209 205 202 204 203 201 202 200 199 200 201 203 204 204 203 204 204 201 198 199 197 195 191 186 177 164 142 112 83 61 55 57 58 55 57 57 56 53 51 53 54 55 55
203 198 198 204 208 212 207 203 201 201 202 201 200 199 198 200 201 203 205 205 205 205 204 202 202 203 203 202 199 194 190 186 176 157 134 82 58 57 57 52 52 51 51 48 45 46 46 47 48
200 202 205 208 211 212 207 202 204 201 201 201 200 199 202 202 201 204 207 206 206 206 206 206 206 208 208 207 205 202 200 199 197 195 185 172 106 58 53 45 44 44 42 38 36 36 34 35 35
Height
5891 5892 5893 5894 5895 5894 5893 5893 5893 5893 5893 5893 5893 5893 5894 5895 5896 5898 5896 5895 5895 5895 5895 5894 5894 5894 5893 5893 5893 5893 5892 5891 5890 5889 5889 5888 5887 5886 5885 5885 5884 5883 5882 5881 5880 5880 5879 5879 5879
5889 5890 5892 5892 5892 5892 5893 5892 5892 5892 5893 5892 5892 5893 5893 5894 5894 5894 5894 5894 5894 5894 5894 5894 5893 5893 5893 5893 5892 5892 5891 5890 5889 5889 5888 5887 5886 5885 5884 5883 5882 5881 5880 5880 5879 5878 5877 5877 5877
5887 5888 5890 5890 5890 5891 5892 5891 5891 5891 5892 5892 5892 5893 5893 5893 5893 5893 5893 5893 5893 5893 5893 5893 5892 5892 5892 5892 5892 5891 5890 5889 5888 5888 5887 5886 5885 5884 5883 5881 5880 5879 5879 5878 5877 5876 5875 5875 5875
5885 5887 5888 5889 5888 5889 5890 5890 5890 5890 5890 5890 5891 5892 5892 5893 5893 5892 5892 5892 5892 5892 5892 5892 5892 5891 5891 5891 5891 5890 5889 5888 5887 5886 5885 5884 5883 5882 5881 5880 5879 5878 5877 5876 5875 5874 5874 5873 5873
5883 5884 5885 5886 5886 5887 5888 5888 5888 5888 5889 5889 5890 5890 5891 5892 5891 5891 5891 5891 5891 5891 5891 5891 5891 5891 5891 5890 5890 5889 5888 5887 5886 5885 5884 5883 5882 5880 5879 5878 5877 5876 5875 5874 5873 5873 5872 5871 5871
5880 5881 5883 5883 5884 5885 5886 5886 5886 5887 5887 5888 5889 5890 5890 5891 5891 5890 5890 5890 5890 5890 5890 5890 5890 5890 5890 5889 5889 5888 5887 5886 5885 5884 5882 5881 5880 5879 5878 5876 5875 5874 5873 5872 5872 5871 5870 5870 5869
5878 5879 5879 5881 5882 5883 5884 5884 5885 5885 5886 5887 5888 5888 5889 5890 5890 5889 5889 5889 5889 5889 5889 5889 5889 5889 5889 5889 5888 5887 5886 5885 5884 5882 5881 5880 5878 5877 5876 5875 5873 5872 5871 5870 5869 5868 5868 5867 5867
5874 5876 5876 5878 5879 5881 5881 5882 5883 5884 5884 5885 5886 5887 5888 5888 5889 5889 5889 5889 5889 5888 5889 5889 5889 5888 5888 5888 5887 5886 5885 5884 5882 5881 5880 5878 5877 5876 5874 5873 5872 5870 5869 5868 5867 5866 5866 5865 5865
5871 5874 5874 5875 5877 5878 5878 5880 5881 5882 5883 5884 5885 5886 5887 5887 5888 5888 5888 5888 5888 5888 5888 5888 5888 5888 5887 5887 5886 5885 5884 5882 5881 5880 5878 5877 5875 5874 5872 5871 5870 5868 5867 5866 5865 5864 5864 5863 5863
5867 5869 5871 5872 5874 5875 5876 5877 5879 5880 5881 5882 5883 5884 5885 5886 5887 5887 5888 5888 5888 5888 5888 5887 5887 5887 5887 5886 5885 5884 5883 5881 5880 5879 5877 5876 5874 5872 5871 5869 5868 5866 5865 5864 5863 5862 5862 5861 5861
5863 5866 5867 5869 5870 5872 5873 5875 5876 5878 5879 5881 5882 5883 5884 5885 5886 5886 5887 5887 5888 5888 5887 5887 5887 5887 5886 5885 5884 5883 5882 5881 5879 5878 5876 5875 5873 5871 5869 5868 5866 5865 5863 5862 5861 5860 5860 5859 5859
5860 5862 5864 5866 5868 5869 5871 5872 5874 5876 5878 5879 5881 5882 5883 5884 5885 5886 5886 5887 5887 5887 5887 5887 5887 5886 5886 5885 5884 5883 5881 5880 5879 5877 5875 5873 5871 5870 5868 5866 5864 5863 5861 5860 5859 5858 5858 5857 5857
5856 5858 5860 5862 5865 5867 5869 5870 5872 5874 5876 5877 5879 5880 5882 5883 5884 5885 5885 5886 5886 5887 5886 5886 5887 5886 5885 5885 5884 5882 5881 5880 5878 5876 5875 5872 5870 5869 5867 5865 5863 5861 5860 5859 5857 5856 5856 5856 5856
5852 5854 5856 5859 5862 5864 5866 5868 5871 5872 5874 5875 5877 5878 5880 5882 5883 5884 5884 5885 5886 5886 5886 5886 5886 5885 5885 5884 5883 5882 5881 5879 5878 5876 5874 5872 5870 5868 5866 5864 5862 5860 5858 5857 5856 5855 5854 5854 5854
5848 5851 5853 5856 5858 5861 5864 5866 5868 5870 5872 5873 5875 5877 5878 5880 5882 5883 5883 5884 5885 5885 5885 5885 5885 5885 5885 5884 5883 5882 5881 5879 5877 5876 5874 5871 5869 5867 5865 5863 5861 5859 5857 5856 5855 5854 5853 5853 5852
5844 5847 5850 5852 5855 5858 5862 5864 5866 5867 5869 5871 5873 5875 5877 5879 5880 5881 5882 5883 5884 5884 5884 5885 5885 5885 5884 5884 5883 5882 5881 5879 5877 5876 5874 5872 5869 5867 5865 5863 5861 5859 5857 5855 5854 5853 5852 5852 5851
5840 5843 5846 5849 5851 5854 5858 5860 5863 5865 5867 5869 5871 5873 5875 5877 5879 5880 5881 5882 5883 5883 5884 5884 5885 5885 5884 5884 5883 5882 5881 5879 5878 5876 5874 5872 5870 5868 5865 5863 5861 5859 5857 5855 5853 5852 5852 5851 5851
5837 5839 5842 5845 5848 5851 5854 5857 5860 5862 5865 5867 5869 5871 5873 5875 5877 5879 5880 5881 5882 5882 5883 5884 5884 5884 5884 5884 5883 5882 5881 5880 5878 5876 5875 5873 5871 5868 5866 5864 5861 5859 5857 5855 5854 5853 5852 5851 5851
5833 5836 5838 5842 5844 5847 5851 5854 5857 5859 5862 5864 5867 5869 5871 5873 5876 5878 5879 5880 5881 5882 5883 5884 5884 5884 5884 5884 5883 5883 5882 5880 5879 5877 5876 5874 5872 5869 5867 5865 5863 5861 5859 5857 5855 5854 5853 5853 5852
5830 5833 5835 5838 5841 5844 5847 5850 5853 5856 5859 5861 5864 5867 5869 5871 5874 5876 5878 5879 5880 5881 5882 5883 5884 5884 5884 5884 5884 5883 5882 5881 5880 5879 5877 5875 5873 5871 5869 5867 5865 5862 5860 5859 5857 5856 5855 5854 5854
5828 5830 5833 5835 5838 5841 5844 5848 5850 5853 5856 5859 5862 5865 5867 5870 5872 5874 5876 5878 5879 5880 5882 5883 5883 5884 5884 5884 5884 5884 5883 5882 5881 5880 5878 5876 5874 5872 5870 5868 5867 5865 5863 5861 5860 5859 5857 5856 5856
5826 5828 5830 5832 5835 5838 5841 5844 5847 5850 5853 5856 5859 5863 5865 5868 5870 5872 5874 5876 5878 5879 5881 5882 5883 5884 5884 5884 5884 5884 5884 5883 5882 5881 5880 5878 5876 5874 5872 5871 5869 5867 5866 5864 5862 5861 5860 5859 5858
5824 5826 5828 5830 5832 5835 5838 5841 5845 5846 5850 5853 5857 5860 5863 5865 5867 5870 5872 5874 5877 5878 5880 5881 5882 5883 5884 5884 5884 5885 5884 5884 5883 5882 5881 5880 5878 5876 5875 5873 5871 5870 5868 5866 5865 5864 5862 5861 5860
5822 5824 5826 5827 5830 5833 5836 5838 5842 5844 5848 5851 5854 5857 5861 5863 5866 5868 5870 5873 5875 5877 5879 5880 5882 5883 5884 5884 5884 5885 5885 5884 5884 5883 5882 5881 5880 5878 5877 5875 5873 5872 5871 5869 5867 5866 5865 5864 5863
5820 5823 5824 5826 5828 5831 5833 5835 5840 5843 5845 5848 5851 5855 5858 5861 5864 5866 5869 5871 5874 5876 5878 5879 5881 5882 5883 5884 5884 5885 5885 5885 5885 5884 5883 5882 5881 5880 5878 5877 5876 5874 5873 5871 5870 5868 5867 5866 5865
5818 5821 5823 5825 5827 5829 5831 5833 5838 5840 5842 5845 5849 5852 5855 5858 5861 5864 5867 5869 5872 5874 5876 5878 5880 5881 5882 5883 5884 5885 5885 5885 5885 5885 5884 5883 5882 5881 5880 5879 5878 5876 5875 5874 5872 5871 5870 5868 5867
5817 5818 5821 5823 5824 5827 5829 5832 5835 5837 5839 5842 5846 5849 5852 5856 5859 5862 5865 5867 5870 5872 5875 5877 5878 5880 5881 5883 5884 5884 5885 5885 5885 5885 5884 5884 5883 5882 5881 5880 5879 5878 5877 5876 5874 5873 5872 5870 5869
5816 5816 5819 5820 5822 5825 5827 5829 5832 5834 5837 5840 5843 5847 5850 5854 5857 5860 5862 5865 5867 5870 5873 5875 5877 5879 5880 5882 5883 5884 5884 5885 5885 5885 5885 5884 5883 5883 5882 5881 5880 5879 5878 5877 5876 5875 5874 5872 5871
5815 5816 5817 5818 5821 5823 5825 5830 5830 5832 5835 5838 5841 5844 5847 5851 5854 5857 5860 5862 5865 5868 5871 5873 5875 5877 5879 5880 5882 5883 5884 5884 5885 5885 5884 5884 5884 5883 5883 5882 5881 5880 5879 5878 5877 5876 5875 5873 5872
5813 5814 5816 5818 5819 5821 5823 5829 5828 5830 5832 5835 5838 5841 5844 5848 5851 5854 5857 5860 5863 5866 5868 5871 5873 5875 5877 5879 5880 5881 5882 5883 5884 5884 5884 5884 5883 5883 5883 5882 5881 5880 5879 5878 5877 5876 5875 5874 5873